STARLINK-34470, 64703

Orbit data source: Space-Track

STARLINK-34470, 64703 is a payload satellite owned by SpaceX/Seattle (US) in LEO that was launched on Sat, 28 Jun 2025 UTC via an FALCON 9 launch vehicle from the Air Force Western Test Range (AFWTR). Payload-class satellites include a variety of spacecraft equipped with specific instruments for various scientific and technological missions. These include communications satellites like Starlink; space stations such as the ISS; scientific satellites like the Hubble; Earth observation satellites from companies like Planet Labs, Umbra, and HawkEye 360; GPS; miniature CubeSats for education and research; and military/defense satellites.

Loading next visibility...
Identifier
64703, 2025-142H
Orbit
LEO
Country
Flag of USUS
Related business
Manufacturer
SpaceX/Seattle
Mission
Operational Commercial Communications
Bus & Motor
STARLINK V2MO, Unknown motor
Mass
575 kg wet, ~530 kg dry
Launch date (UTC)
2025-06-28 (1 year ago)
Launch vehicle
FALCON 9
Launch site
Air Force Western Test Range (AFWTR)
Object type
Payload
Rocket body
Debris
Shape & HBR
Box + 1 Pan, 17.7 m
Radar Cross Section
41.120 m², Large (>1 m²)

Expand to show TLE details & history
Last TLE update: 4 hours ago

TLE from 4 hours ago
0 STARLINK-34470
1 64703U 25142H   26253.75002315  .00082456  00000-0  28448-2 0  9998
2 64703  70.0008 206.8526 0003402 266.9517 157.3316 15.29540653  5653
Epoch: 2026-09-10T18:00Z
TLE epoch observation values (Epoch: 2026-09-10T18:00:02.000Z)
Latitude
57.97542°
Longitude
-17.58117°
Altitude
488.503 km
Speed
7.626 km/s
True Right ascension
16h 08m 50s
True Declination
57° 48' 52"
Sunlit
Object was in daylight at epoch
Visualization orbit readout
Latitude
Unknown
Longitude
Unknown
Altitude
Unknown
Speed
Unknown
Apparent Right ascension
Unknown
Apparent Declination
Unknown
Sunlit
N/A
Visualization observer readout
Local Sidereal Time
14:28:22
Azimuth
Unknown
Elevation
Unknown
Doppler factor
Unknown
Orbital elements
Apogee altitude
477.436 km
Perigee altitude
472.773 km
Semi-major axis
6,853.241 km
Eccentricity
0.00034
Inclination
70.0008°
RAAN
206.8526°
Arg. of periapsis
266.9517°
True anomaly
157.34662°
Mean anomaly
157.3316°
Eccentric anomaly
157.33911°
Mean motion
3.8256 °/min
Orbital period
94.1 mins
BSTAR
0.0028448
Loading maneuver chart data...
Computing Atmospheric mass density...
Loading historical data...
Loading historical data...
Loading historical data...
Loading historical data...
Loading historical data...
Loading historical data...
Loading historical data...

Documentation

Showing up to 5 results
|